Year,Month,Day,Hour,Minute,Value (Times are PST for temperature in C)
2015,03,27,09,59,12.20
2015,03,27,10,00,12.30
2015,03,27,10,01,12.30
2015,03,27,10,02,12.30
2015,03,27,10,03,12.40
2015,03,27,10,04,12.40
2015,03,27,10,05,12.40
2015,03,27,10,06,12.50
2015,03,27,10,07,12.50
2015,03,27,10,08,12.50
2015,03,27,10,09,12.50
2015,03,27,10,10,12.50
2015,03,27,10,11,12.50
2015,03,27,10,12,12.50
2015,03,27,10,13,12.60
2015,03,27,10,14,12.60
2015,03,27,10,15,12.60
2015,03,27,10,16,12.50
2015,03,27,10,17,12.50
2015,03,27,10,18,12.50
2015,03,27,10,19,12.40
2015,03,27,10,20,12.40
2015,03,27,10,21,12.40
2015,03,27,10,22,12.40
2015,03,27,10,23,12.40
2015,03,27,10,24,12.40
2015,03,27,10,25,12.40
2015,03,27,10,26,12.40
2015,03,27,10,27,12.30
2015,03,27,10,28,12.30
2015,03,27,10,29,12.30
2015,03,27,10,30,12.20
2015,03,27,10,31,12.20
2015,03,27,10,32,12.20
2015,03,27,10,33,12.20
2015,03,27,10,34,12.20
2015,03,27,10,35,12.20
2015,03,27,10,36,12.20
2015,03,27,10,37,12.20
2015,03,27,10,38,12.20
2015,03,27,10,39,12.20
2015,03,27,10,40,12.20
2015,03,27,10,41,12.30
2015,03,27,10,42,12.30
2015,03,27,10,43,12.30
2015,03,27,10,44,12.30
2015,03,27,10,45,12.30
2015,03,27,10,46,12.30
2015,03,27,10,47,12.30
2015,03,27,10,48,12.30
2015,03,27,10,49,12.30
2015,03,27,10,50,12.30
2015,03,27,10,51,12.30
2015,03,27,10,52,12.30
2015,03,27,10,53,12.30
2015,03,27,10,54,12.40
2015,03,27,10,55,12.40
2015,03,27,10,56,12.40
2015,03,27,10,57,12.40
2015,03,27,10,58,12.40
2015,03,27,10,59,12.40
2015,03,27,11,00,12.50
2015,03,27,11,01,12.60
2015,03,27,11,02,12.80
2015,03,27,11,03,12.80
2015,03,27,11,04,12.90
2015,03,27,11,05,12.90
2015,03,27,11,06,13.00
2015,03,27,11,07,13.10
2015,03,27,11,08,13.10
2015,03,27,11,09,13.10
2015,03,27,11,10,13.20
2015,03,27,11,11,13.10
2015,03,27,11,12,13.10
2015,03,27,11,13,13.10
2015,03,27,11,14,13.20
2015,03,27,11,15,13.20
2015,03,27,11,16,13.20
2015,03,27,11,17,13.20
2015,03,27,11,18,13.30
2015,03,27,11,19,13.30
2015,03,27,11,20,13.30
2015,03,27,11,21,13.40
2015,03,27,11,22,13.50
2015,03,27,11,23,13.70
2015,03,27,11,24,13.80
2015,03,27,11,25,13.90
2015,03,27,11,26,13.90
2015,03,27,11,27,13.90
2015,03,27,11,28,13.90
2015,03,27,11,29,13.90
2015,03,27,11,30,14.00
2015,03,27,11,31,14.10
2015,03,27,11,32,14.10
2015,03,27,11,33,14.20
2015,03,27,11,34,14.30
2015,03,27,11,35,14.30
2015,03,27,11,36,14.30
2015,03,27,11,37,14.30
2015,03,27,11,38,14.30
2015,03,27,11,39,14.20
2015,03,27,11,40,14.20
2015,03,27,11,41,14.20
2015,03,27,11,42,14.20
2015,03,27,11,43,14.20
2015,03,27,11,44,14.30
2015,03,27,11,45,14.30
2015,03,27,11,46,14.30
2015,03,27,11,47,14.30
2015,03,27,11,48,14.40
2015,03,27,11,49,14.50
2015,03,27,11,50,14.60
2015,03,27,11,51,14.70
2015,03,27,11,52,14.80
2015,03,27,11,53,14.80
2015,03,27,11,54,14.80
2015,03,27,11,55,14.80
2015,03,27,11,56,14.80
2015,03,27,11,57,14.80
2015,03,27,11,58,14.90
2015,03,27,11,59,14.80
2015,03,27,12,00,14.70
2015,03,27,12,01,14.70
2015,03,27,12,02,14.60
2015,03,27,12,03,14.60
2015,03,27,12,04,14.60
2015,03,27,12,05,14.70
2015,03,27,12,06,14.70
2015,03,27,12,07,14.80
2015,03,27,12,08,14.80
2015,03,27,12,09,14.80
2015,03,27,12,10,14.80
2015,03,27,12,11,14.80
2015,03,27,12,12,14.80
2015,03,27,12,13,14.90
2015,03,27,12,14,14.80
2015,03,27,12,15,14.70
2015,03,27,12,16,14.70
2015,03,27,12,17,14.70
2015,03,27,12,18,14.80
2015,03,27,12,19,14.80
2015,03,27,12,20,14.80
2015,03,27,12,21,14.90
2015,03,27,12,22,14.90
2015,03,27,12,23,14.90
2015,03,27,12,24,14.90
2015,03,27,12,25,14.80
2015,03,27,12,26,14.80
2015,03,27,12,27,14.70
2015,03,27,12,28,14.80
2015,03,27,12,29,14.70
2015,03,27,12,30,14.80
2015,03,27,12,31,14.80
2015,03,27,12,32,14.80
2015,03,27,12,33,14.70
2015,03,27,12,34,14.70
2015,03,27,12,35,14.80
2015,03,27,12,36,14.90
2015,03,27,12,37,15.00
2015,03,27,12,38,15.10
2015,03,27,12,39,15.20
2015,03,27,12,40,15.20
2015,03,27,12,41,15.20
2015,03,27,12,42,15.20
2015,03,27,12,43,15.20
2015,03,27,12,44,15.20
2015,03,27,12,45,15.20
2015,03,27,12,46,15.20
2015,03,27,12,47,15.20
2015,03,27,12,48,15.20
2015,03,27,12,49,15.20
2015,03,27,12,50,15.30
2015,03,27,12,51,15.30
2015,03,27,12,52,15.30
2015,03,27,12,53,15.40
2015,03,27,12,54,15.40
2015,03,27,12,55,15.40
2015,03,27,12,56,15.40
2015,03,27,12,57,15.50
2015,03,27,12,58,15.60
2015,03,27,12,59,15.70
2015,03,27,13,00,15.80
2015,03,27,13,01,15.90
2015,03,27,13,02,15.90
2015,03,27,13,03,16.00
2015,03,27,13,04,16.10
2015,03,27,13,05,16.10
2015,03,27,13,06,16.20
2015,03,27,13,07,16.20
2015,03,27,13,08,16.00
2015,03,27,13,09,15.90
2015,03,27,13,10,15.90
2015,03,27,13,11,15.90
2015,03,27,13,12,15.80
2015,03,27,13,13,15.90
2015,03,27,13,14,16.00
2015,03,27,13,15,15.90
2015,03,27,13,16,15.80
2015,03,27,13,17,15.90
2015,03,27,13,18,16.00
2015,03,27,13,19,16.20
2015,03,27,13,20,16.30
2015,03,27,13,21,16.40
2015,03,27,13,22,16.40
2015,03,27,13,23,16.50
2015,03,27,13,24,16.60
2015,03,27,13,25,16.80
2015,03,27,13,26,16.90
2015,03,27,13,27,16.90
2015,03,27,13,28,16.80
2015,03,27,13,29,16.80
2015,03,27,13,30,16.70
2015,03,27,13,31,16.70
2015,03,27,13,32,16.70
2015,03,27,13,33,16.70
2015,03,27,13,34,16.60
2015,03,27,13,35,16.60
2015,03,27,13,36,16.50
2015,03,27,13,37,16.40
2015,03,27,13,38,16.40
2015,03,27,13,39,16.40
2015,03,27,13,40,16.30
2015,03,27,13,41,16.30
2015,03,27,13,42,16.30
2015,03,27,13,43,16.20
2015,03,27,13,44,16.20
2015,03,27,13,45,16.20
2015,03,27,13,46,16.10
2015,03,27,13,47,16.10
2015,03,27,13,48,16.20
2015,03,27,13,49,16.20
2015,03,27,13,50,16.20
2015,03,27,13,51,16.10
2015,03,27,13,52,16.10
2015,03,27,13,53,16.00
2015,03,27,13,54,16.00
2015,03,27,13,55,15.90
2015,03,27,13,56,15.90
2015,03,27,13,57,15.90
2015,03,27,13,58,15.90
2015,03,27,13,59,15.90
2015,03,27,14,00,15.90
2015,03,27,14,01,15.90
2015,03,27,14,02,15.90
2015,03,27,14,03,15.80
2015,03,27,14,04,15.70
2015,03,27,14,05,15.70
2015,03,27,14,06,15.70
2015,03,27,14,07,15.70
2015,03,27,14,08,15.70
2015,03,27,14,09,15.80
2015,03,27,14,10,15.80
2015,03,27,14,11,15.80
2015,03,27,14,12,15.80
2015,03,27,14,13,15.80
2015,03,27,14,14,15.80
2015,03,27,14,15,15.80
2015,03,27,14,16,15.80
2015,03,27,14,17,15.80
2015,03,27,14,18,15.70
2015,03,27,14,19,15.80
2015,03,27,14,20,15.80
2015,03,27,14,21,15.80
2015,03,27,14,22,15.80
2015,03,27,14,23,15.80
2015,03,27,14,24,15.70
2015,03,27,14,25,15.60
2015,03,27,14,26,15.50
2015,03,27,14,27,15.50
2015,03,27,14,28,15.50
2015,03,27,14,29,15.50
2015,03,27,14,30,15.50
2015,03,27,14,31,15.40
2015,03,27,14,32,15.40
2015,03,27,14,33,15.50
2015,03,27,14,34,15.50
2015,03,27,14,35,15.50
2015,03,27,14,36,15.50
2015,03,27,14,37,15.50
2015,03,27,14,38,15.50
2015,03,27,14,39,15.50
2015,03,27,14,40,15.50
2015,03,27,14,41,15.40
2015,03,27,14,42,15.40
2015,03,27,14,43,15.40
2015,03,27,14,44,15.40
2015,03,27,14,45,15.40
2015,03,27,14,46,15.30
2015,03,27,14,47,15.30
2015,03,27,14,48,15.30
2015,03,27,14,49,15.30
2015,03,27,14,50,15.30
2015,03,27,14,51,15.30
2015,03,27,14,52,15.20
2015,03,27,14,53,15.10
2015,03,27,14,54,15.10
2015,03,27,14,55,15.10
2015,03,27,14,56,15.10
2015,03,27,14,57,15.10
2015,03,27,14,58,15.10
2015,03,27,14,59,15.10
2015,03,27,15,00,15.10
2015,03,27,15,01,15.10
2015,03,27,15,02,15.20
2015,03,27,15,03,15.10
2015,03,27,15,04,15.00
2015,03,27,15,05,15.00
2015,03,27,15,06,15.10
2015,03,27,15,07,15.20
2015,03,27,15,08,15.30
2015,03,27,15,09,15.40
2015,03,27,15,10,15.30
2015,03,27,15,11,15.20
2015,03,27,15,12,15.10
2015,03,27,15,13,15.10
2015,03,27,15,14,15.20
2015,03,27,15,15,15.20
2015,03,27,15,16,15.30
2015,03,27,15,17,15.30
2015,03,27,15,18,15.30
2015,03,27,15,19,15.30
2015,03,27,15,20,15.30
2015,03,27,15,21,15.30
2015,03,27,15,22,15.20
2015,03,27,15,23,15.20
2015,03,27,15,24,15.20
2015,03,27,15,25,15.10
2015,03,27,15,26,15.10
2015,03,27,15,27,15.10
2015,03,27,15,28,15.10
2015,03,27,15,29,15.20
2015,03,27,15,30,15.20
2015,03,27,15,31,15.20
2015,03,27,15,32,15.20
2015,03,27,15,33,15.20
2015,03,27,15,34,15.20
2015,03,27,15,35,15.20
2015,03,27,15,36,15.20
2015,03,27,15,37,15.20
2015,03,27,15,38,15.20
2015,03,27,15,39,15.10
2015,03,27,15,40,15.10
2015,03,27,15,41,15.10
2015,03,27,15,42,15.10
2015,03,27,15,43,15.20
2015,03,27,15,44,15.20
2015,03,27,15,45,15.20
2015,03,27,15,46,15.30
2015,03,27,15,47,15.30
2015,03,27,15,48,15.30
2015,03,27,15,49,15.40
2015,03,27,15,50,15.40
2015,03,27,15,51,15.40
2015,03,27,15,52,15.40
2015,03,27,15,53,15.50
2015,03,27,15,54,15.50
2015,03,27,15,55,15.50
2015,03,27,15,56,15.50
2015,03,27,15,57,15.60
2015,03,27,15,58,15.60
2015,03,27,15,59,15.60
2015,03,27,16,00,15.60
2015,03,27,16,01,15.60
2015,03,27,16,02,15.50
2015,03,27,16,03,15.50
2015,03,27,16,04,15.40
2015,03,27,16,05,15.40
2015,03,27,16,06,15.40
2015,03,27,16,07,15.40
2015,03,27,16,08,15.40
2015,03,27,16,09,15.40
2015,03,27,16,10,15.40
2015,03,27,16,11,15.40
2015,03,27,16,12,15.40
2015,03,27,16,13,15.40
2015,03,27,16,14,15.40
2015,03,27,16,47,15.20
2015,03,27,16,48,15.20
2015,03,27,16,49,15.20
2015,03,27,16,50,15.20
2015,03,27,16,51,15.10
2015,03,27,16,52,15.10
2015,03,27,16,53,15.10
2015,03,27,16,54,15.00
2015,03,27,16,55,15.00
2015,03,27,16,56,15.10
2015,03,27,16,57,15.10
2015,03,27,16,58,15.10
2015,03,27,16,59,15.00
2015,03,27,17,00,15.00
2015,03,27,17,01,14.90
2015,03,27,17,02,14.90
2015,03,27,17,03,14.90
2015,03,27,17,04,14.90
2015,03,27,17,05,14.90
2015,03,27,17,06,14.90
2015,03,27,17,07,14.90
2015,03,27,17,08,14.90
2015,03,27,17,09,14.80
2015,03,27,17,10,14.80
2015,03,27,17,11,14.80
2015,03,27,17,12,14.90
2015,03,27,17,13,14.90
2015,03,27,17,14,14.80
2015,03,27,17,15,14.80
2015,03,27,17,16,14.80
2015,03,27,17,17,14.80
2015,03,27,17,18,14.80
2015,03,27,17,19,14.80
2015,03,27,17,20,14.80
2015,03,27,17,21,14.80
2015,03,27,17,22,14.70
2015,03,27,17,23,14.70
2015,03,27,17,24,14.60
2015,03,27,17,25,14.60
2015,03,27,17,26,14.60
2015,03,27,17,27,14.60
2015,03,27,17,28,14.60
2015,03,27,17,29,14.60
2015,03,27,17,30,14.70
2015,03,27,17,31,14.70
2015,03,27,17,32,14.70
2015,03,27,17,33,14.70
2015,03,27,17,34,14.70
2015,03,27,17,35,14.70
2015,03,27,17,36,14.70
2015,03,27,17,37,14.70
2015,03,27,17,38,14.70
2015,03,27,17,39,14.70
2015,03,27,17,40,14.70
2015,03,27,17,41,14.70
2015,03,27,17,42,14.70
2015,03,27,17,43,14.70
2015,03,27,17,44,14.70
2015,03,27,17,45,14.70
2015,03,27,17,46,14.70
2015,03,27,17,47,14.70
